Theta_e
317 321 322 325 324 327 332 333 335 335 335 325 319 323 320 323 324 321 322 321 323 320 320 320 320 321 320 320 320 319 319 319 320 329 329 327 325 317 317 315 317 321 321 329 332 331 336 343 343 339 337 336 338 339 341 341 341 340 341 342 342 341 340 340 341 342 343 343 343 343 342 342 343 342 341 341 341 339 338 338 338 338 338 337 336 335 336 337 337 338 338 338 337 336 337 338 336
318 322 326 329 324 331 341 336 336 335 332 322 318 323 319 323 324 320 321 321 321 319 321 321 321 322 321 320 319 319 318 319 318 327 328 321 321 317 317 318 319 320 318 325 333 332 332 339 343 342 339 337 338 338 340 340 340 341 340 341 341 341 340 341 341 342 342 343 343 343 343 342 342 342 342 341 341 340 339 336 335 337 338 338 337 337 337 337 337 338 338 338 337 338 338 337 337
321 323 327 330 329 332 342 340 337 334 328 321 316 321 320 320 321 319 321 320 320 319 322 320 321 321 320 321 318 319 317 320 319 324 328 318 319 319 318 321 318 316 318 327 336 336 332 336 341 342 342 340 339 338 339 339 340 340 341 341 341 341 341 341 341 342 342 342 343 343 342 342 342 342 341 340 340 340 339 336 334 335 337 339 338 338 339 338 337 337 337 338 338 337 338 337 337
325 326 327 329 338 338 341 342 338 333 323 320 318 318 320 320 320 319 320 320 321 320 320 319 321 318 318 319 317 318 317 319 318 320 325 318 318 320 319 320 317 314 317 327 334 337 335 336 337 338 341 342 341 339 339 338 339 340 341 341 341 341 342 341 340 342 342 341 342 343 342 341 342 342 340 340 339 339 339 337 336 335 335 338 338 338 339 338 337 337 337 337 338 338 337 337 336
323 325 326 327 341 336 332 334 332 331 319 320 321 317 319 319 320 319 318 320 321 320 319 318 319 317 317 318 318 319 317 318 317 317 321 318 319 320 320 320 318 318 318 321 327 331 333 333 332 332 334 337 340 340 340 339 338 339 339 340 340 340 341 341 341 342 342 341 342 342 342 341 342 341 340 339 339 339 338 338 337 336 335 335 338 339 338 338 337 338 337 337 337 337 337 337 337
320 323 326 327 336 328 330 330 322 324 317 323 322 315 320 318 319 319 317 319 320 321 319 318 317 316 317 317 318 318 317 318 317 318 319 319 321 320 322 322 321 322 324 324 325 326 328 328 327 328 329 330 333 335 337 338 339 339 338 338 339 339 340 341 342 342 341 341 341 341 341 340 341 340 340 339 338 339 338 338 337 337 336 335 337 338 338 337 337 339 339 338 337 336 337 338 337
321 324 329 333 333 328 338 331 319 324 318 321 322 317 320 317 319 319 318 318 318 320 318 318 316 317 317 317 317 316 315 316 317 317 317 319 322 322 321 323 324 323 324 325 325 326 327 328 328 328 329 329 330 330 331 333 335 337 338 337 337 338 339 340 341 341 340 340 339 340 340 340 340 340 339 339 338 338 338 338 337 336 335 335 336 336 337 337 337 339 340 339 339 338 338 338 338
322 324 330 339 338 332 336 327 321 328 320 318 321 320 319 317 319 318 320 319 316 318 317 317 317 317 315 315 316 314 313 313 314 314 314 317 319 318 318 320 320 318 318 318 319 322 324 326 328 329 330 330 330 330 329 330 331 332 334 335 335 336 337 340 341 340 339 338 338 337 338 338 339 339 339 339 338 338 337 337 337 335 335 335 335 334 334 335 336 336 337 338 339 339 339 339 339
322 324 332 339 336 333 332 325 321 323 320 319 319 320 319 318 319 318 319 318 316 316 315 315 317 316 314 314 314 313 311 311 311 313 313 314 314 313 314 315 313 311 311 311 313 315 317 320 322 324 326 328 329 330 330 330 330 330 331 332 334 335 336 338 339 340 340 339 338 337 337 338 338 338 338 339 338 337 337 337 337 336 335 335 334 333 332 333 334 334 335 337 338 339 339 338 339
325 323 331 336 330 329 326 322 322 320 318 319 317 318 318 318 319 318 317 315 315 315 314 315 316 315 315 314 313 312 310 310 310 312 312 311 312 311 311 311 311 309 307 308 309 310 311 314 315 316 318 322 324 327 328 329 329 330 330 331 332 334 335 337 338 339 340 340 340 339 338 338 339 338 338 338 337 336 337 337 335 335 335 335 334 334 333 333 334 333 333 335 337 339 339 338 338
331 328 334 337 331 324 319 320 321 319 317 317 317 317 317 317 319 318 316 314 314 315 314 315 315 314 314 313 313 311 309 309 309 310 311 310 310 309 309 309 309 308 306 307 308 308 308 309 310 311 311 314 317 320 324 327 328 329 329 329 330 332 333 335 337 338 339 339 339 339 339 339 339 337 337 338 337 336 336 335 333 334 335 335 335 335 335 334 334 334 332 333 335 337 338 338 338
327 332 338 331 329 322 319 323 319 319 320 319 318 317 317 317 318 317 317 315 314 315 313 314 314 314 314 313 312 309 308 308 309 309 309 309 308 308 307 306 307 307 306 305 306 307 307 308 309 310 309 310 312 315 318 323 326 328 328 328 329 330 332 333 333 334 336 337 338 338 338 339 339 338 337 337 338 336 335 334 333 333 335 335 335 335 335 335 334 332 331 332 334 335 336 338 338
323 330 333 327 332 324 321 324 320 325 322 319 318 317 318 317 317 316 316 315 314 314 312 312 313 314 314 312 310 307 308 307 307 308 307 307 307 306 305 305 305 305 305 304 305 305 306 307 308 310 310 309 309 312 315 318 322 325 326 327 328 329 330 331 332 332 332 333 335 337 338 339 339 338 337 336 337 336 335 336 335 334 335 335 335 334 333 334 334 331 329 331 333 333 334 336 338
326 328 327 329 335 324 321 322 322 328 319 318 319 316 317 316 317 316 316 315 313 312 311 311 312 315 314 312 310 307 307 306 306 307 305 305 305 305 304 305 305 305 304 304 304 304 305 306 306 309 310 308 309 312 312 314 317 319 322 324 326 327 328 329 330 332 332 332 332 334 336 337 338 338 336 336 335 335 335 334 334 335 335 334 334 334 333 333 333 330 329 330 331 331 331 334 337
326 329 330 332 335 324 321 321 324 326 318 318 318 316 317 316 318 318 317 314 312 312 311 310 311 315 313 310 309 307 306 304 304 304 304 304 303 304 304 303 304 304 304 304 304 303 304 305 304 307 309 307 309 313 312 311 313 314 317 319 321 323 325 327 328 330 331 332 332 331 332 334 337 337 336 335 335 335 334 333 334 335 335 334 334 333 333 332 332 330 329 329 329 329 329 331 335
325 335 337 332 332 324 319 322 325 323 317 318 317 317 317 315 317 317 314 312 310 311 310 309 309 310 309 308 308 306 305 303 303 303 303 303 302 303 303 302 303 303 304 304 304 303 303 304 303 304 307 305 306 310 310 310 311 311 312 314 317 319 321 324 325 327 328 331 332 332 332 332 334 335 336 336 335 334 334 335 335 335 334 334 334 333 333 333 331 331 330 329 329 328 328 330 333
332 345 339 331 332 323 318 322 323 321 317 317 316 316 316 314 316 314 311 310 309 309 308 308 307 307 306 306 306 304 304 303 303 303 302 302 302 302 302 302 302 302 303 303 303 302 302 304 303 303 305 304 301 304 305 307 309 311 311 311 313 314 316 319 321 324 326 328 329 331 332 332 332 332 333 335 336 334 334 334 335 334 333 333 333 333 333 333 332 331 330 329 328 328 327 330 333
337 343 330 329 332 321 319 318 318 321 317 316 315 316 317 315 315 314 311 309 308 308 307 306 305 305 305 304 304 304 303 303 302 302 302 302 302 301 301 301 301 301 302 302 301 301 301 302 303 302 302 303 302 300 301 303 305 308 308 309 311 310 311 312 315 318 321 324 326 327 329 330 332 332 332 333 335 334 333 333 334 334 333 333 333 333 333 333 333 332 331 329 328 327 328 332 335
333 333 323 332 333 320 318 316 315 318 316 316 315 316 318 315 314 314 313 309 308 307 306 305 305 304 304 303 303 303 303 302 302 302 302 301 301 301 300 300 300 300 300 302 301 301 300 300 302 302 300 303 303 299 298 299 302 304 302 304 307 308 308 309 310 312 315 320 323 325 326 327 329 331 332 331 332 333 333 332 333 334 333 333 332 333 332 332 333 332 330 329 327 327 329 334 336
328 326 325 334 330 319 317 315 315 316 316 317 315 315 316 314 314 314 311 310 308 307 306 305 304 304 304 304 302 302 302 302 302 301 301 301 301 300 300 299 299 299 299 300 300 300 300 299 301 301 299 301 302 299 298 298 300 302 299 299 302 303 305 307 309 311 312 315 318 321 324 325 327 329 331 332 332 332 333 333 333 333 334 333 333 333 333 332 333 332 330 328 327 327 329 334 336
324 323 327 332 323 318 318 315 316 317 317 317 315 316 313 312 314 312 311 312 309 307 306 305 303 303 304 304 302 301 301 301 301 301 301 301 301 300 299 299 299 298 298 299 298 299 300 299 300 300 298 300 301 299 299 298 299 301 298 297 299 300 302 303 304 309 312 314 314 315 318 322 324 326 328 329 331 332 333 333 334 334 334 334 333 333 333 333 333 331 330 328 327 327 329 333 336
321 321 324 323 317 317 317 316 317 317 317 317 315 315 313 312 313 311 313 314 309 306 305 304 303 303 303 303 301 301 300 300 300 300 300 300 300 300 299 299 299 298 298 298 297 298 299 298 299 300 298 299 299 299 299 298 298 299 297 297 298 300 302 300 299 304 308 312 314 315 316 318 321 324 326 326 328 329 331 333 334 334 334 334 333 333 333 333 333 331 330 329 327 327 329 331 334
318 320 319 317 317 317 316 315 318 317 316 315 313 314 313 313 311 309 310 310 306 305 304 302 302 302 301 301 300 301 300 299 299 300 299 299 299 299 299 298 299 298 298 298 297 297 298 298 298 299 298 298 298 298 299 298 298 299 298 298 298 300 301 300 300 300 301 306 312 315 315 317 319 321 323 324 325 326 328 329 332 333 333 333 333 333 332 333 332 331 330 329 326 327 329 331 333
317 321 319 316 317 316 316 316 316 317 315 313 312 313 313 313 311 308 306 306 305 303 302 301 301 300 300 300 300 300 300 299 299 299 299 298 298 298 299 298 298 298 298 298 298 297 297 297 297 297 297 297 297 297 297 297 298 298 298 298 298 299 300 301 300 298 299 304 309 312 315 317 318 320 321 322 323 324 325 326 329 331 332 333 332 332 332 332 331 331 330 328 326 327 329 332 334
320 322 319 316 317 317 317 316 315 316 313 313 314 313 313 313 310 307 306 305 304 303 301 301 300 300 300 300 301 299 298 298 298 299 299 298 297 297 298 297 297 298 297 297 297 297 297 296 296 296 297 296 296 296 296 296 297 298 297 297 297 298 299 300 299 298 301 305 307 308 311 315 317 318 319 319 321 322 324 325 326 328 331 332 332 331 331 331 331 331 330 328 326 327 330 333 334
318 319 317 316 317 316 316 315 315 315 312 313 316 313 311 310 310 307 305 304 303 302 302 301 301 300 301 300 300 298 297 298 297 298 298 297 297 297 298 297 297 297 297 296 296 296 296 295 295 296 296 296 296 295 295 295 296 297 296 297 297 297 298 298 297 299 303 304 303 302 304 310 315 317 319 319 320 321 323 324 325 326 328 330 330 331 331 331 331 331 330 328 326 328 331 333 334
317 316 316 315 316 316 315 314 314 314 312 313 314 313 311 310 313 310 304 304 303 303 302 301 301 301 301 301 300 298 297 297 297 297 297 297 297 296 297 297 296 297 296 296 296 296 295 295 295 295 296 295 295 295 295 295 296 296 296 296 296 297 297 297 297 298 301 301 299 297 301 307 310 312 314 315 317 319 321 323 324 325 326 328 329 330 331 331 331 331 329 327 326 328 331 332 333
316 315 315 315 316 315 314 314 314 313 311 313 313 313 311 310 314 310 304 304 303 302 302 301 301 301 301 301 300 298 297 297 297 297 297 297 297 297 297 297 296 296 296 295 295 295 295 295 294 295 295 295 295 295 294 295 295 295 295 295 295 296 296 296 297 297 299 299 297 297 300 303 303 303 304 308 312 315 317 319 321 323 324 326 327 329 330 331 331 330 329 327 327 328 330 331 332
314 314 314 316 315 314 315 314 314 313 312 314 312 312 313 312 312 308 304 304 303 302 302 301 301 300 300 300 300 298 296 297 297 297 297 297 297 296 296 296 296 296 295 295 295 295 294 294 294 295 295 294 294 294 294 295 295 295 295 295 295 295 296 296 296 297 297 297 297 298 299 299 299 299 302 307 308 309 313 316 319 320 321 323 325 327 329 330 329 329 328 327 328 329 330 330 330
314 313 313 316 315 316 317 313 314 312 313 315 311 312 315 312 309 305 304 304 303 302 302 301 301 300 300 300 300 299 297 297 297 297 297 297 297 296 295 295 295 295 295 294 294 294 294 294 294 294 294 294 294 294 294 294 294 294 294 295 295 295 295 296 296 296 297 297 297 297 297 297 298 299 302 304 304 304 308 313 316 318 319 320 323 324 327 329 327 327 327 328 329 329 329 329 328
315 312 316 319 317 323 320 313 315 312 313 315 310 312 314 310 307 305 304 303 302 302 301 301 301 301 301 300 300 299 298 297 297 297 296 296 296 295 294 295 294 294 294 294 294 294 293 294 294 294 293 293 294 294 294 294 294 294 294 294 294 294 294 295 295 296 296 296 297 297 297 297 297 299 300 302 303 301 301 307 311 314 316 318 322 323 325 327 326 327 327 327 327 328 328 327 327
316 313 322 325 318 324 320 311 315 313 313 314 310 314 313 308 306 305 304 303 302 302 301 301 301 300 300 300 299 299 298 297 297 297 296 295 295 294 294 294 294 294 294 294 293 293 293 294 294 293 293 293 293 293 293 293 294 294 294 294 293 294 294 294 295 295 296 296 296 297 297 297 297 299 299 300 302 299 297 302 307 309 312 315 319 323 324 325 325 326 326 327 327 326 327 326 326
325 316 321 324 317 318 317 312 315 314 313 313 310 313 313 309 307 305 304 303 302 301 301 300 300 300 299 299 300 300 299 297 297 296 295 295 294 294 294 293 294 294 294 294 293 293 293 293 293 293 293 293 293 293 293 293 294 293 293 293 293 293 293 294 294 294 295 295 296 296 296 296 297 298 299 299 300 298 297 300 303 305 308 312 315 319 323 324 324 324 325 326 327 326 326 325 324
332 325 320 320 316 313 314 313 313 314 313 312 311 310 311 311 307 305 304 302 301 301 300 300 299 299 299 300 300 299 299 298 297 296 294 294 293 293 293 293 293 293 293 293 293 293 293 293 293 293 293 293 293 293 293 293 293 293 292 292 293 293 293 293 293 293 294 294 295 295 295 296 297 298 298 298 299 298 297 298 300 302 306 310 311 314 320 323 323 323 324 325 326 325 324 324 324
326 325 320 319 317 313 312 312 312 315 313 312 313 312 311 310 306 305 303 301 301 301 300 299 299 299 299 300 300 299 299 298 297 296 294 293 293 293 293 293 293 293 293 293 293 293 293 293 293 293 293 293 293 293 293 293 292 292 292 292 292 292 292 292 292 292 292 293 294 295 295 295 296 297 298 298 298 298 298 297 298 301 305 308 309 310 316 322 323 323 324 324 324 325 324 324 324
318 318 317 316 316 312 311 310 312 314 312 312 313 312 311 309 306 306 303 302 302 301 300 299 299 299 300 301 300 300 299 298 297 295 294 293 293 293 292 293 292 292 293 293 293 293 293 293 293 293 293 293 293 293 292 292 292 291 291 291 291 292 292 292 292 292 292 292 293 294 295 296 296 297 297 298 298 298 298 298 297 299 304 308 308 308 311 318 324 323 323 324 323 323 324 323 323
312 313 314 314 314 312 310 310 312 312 311 314 313 311 311 309 307 306 303 302 302 300 299 299 298 299 300 301 300 299 299 297 296 295 294 294 293 293 292 292 292 292 292 292 292 293 293 293 293 293 292 292 292 292 292 292 291 291 291 291 291 291 292 291 291 291 291 291 292 293 294 296 296 296 297 298 298 298 298 298 298 298 301 306 307 307 307 312 320 323 322 323 323 321 321 322 322
311 313 313 314 314 312 310 311 312 310 310 314 313 310 311 309 307 305 303 302 301 300 299 298 298 299 300 300 300 299 298 297 296 295 294 294 293 292 292 292 292 292 292 292 292 292 292 293 293 292 292 292 292 292 291 291 291 290 290 290 290 291 291 291 290 290 290 290 291 292 294 295 296 296 297 298 298 298 298 298 298 297 298 302 305 306 305 305 311 320 323 321 322 322 321 321 321
313 314 313 315 315 314 314 313 311 309 309 314 313 309 308 308 308 306 302 301 301 300 299 298 298 299 300 300 300 299 298 297 297 296 294 293 293 292 292 292 292 292 292 292 292 292 292 292 292 292 292 292 292 291 291 291 290 290 289 290 290 290 289 289 288 288 288 289 289 291 292 294 294 295 296 297 297 297 298 298 298 297 297 300 303 305 304 303 303 311 320 322 320 321 321 320 321
315 314 314 315 315 316 317 315 312 310 309 312 311 308 307 307 308 306 302 301 301 300 300 299 299 299 299 300 300 299 297 296 297 297 294 293 293 292 292 292 292 292 292 292 292 292 292 292 292 291 291 291 291 291 290 290 289 289 289 288 288 287 287 287 286 287 288 289 289 290 291 292 293 294 295 296 296 297 298 298 297 296 296 298 302 304 303 302 301 302 312 320 321 319 320 320 319
320 318 316 316 316 316 317 315 312 311 312 312 309 308 309 308 307 305 301 300 300 300 300 300 300 300 300 300 299 299 299 295 295 297 295 292 292 292 292 292 292 292 292 292 292 292 292 291 291 291 291 291 290 290 289 289 288 288 287 287 286 285 285 285 286 287 287 287 288 289 290 291 292 293 294 295 296 298 298 298 297 296 295 296 301 304 302 301 302 301 304 314 321 320 318 319 319
320 322 318 316 315 314 317 317 313 312 314 313 309 309 312 310 307 304 301 299 299 298 298 298 299 299 300 299 298 299 298 296 295 296 294 292 292 292 292 292 291 292 292 292 292 292 291 291 291 291 291 290 289 289 288 288 287 287 286 285 285 285 285 285 285 286 285 285 285 286 288 289 291 292 293 294 296 297 298 298 298 296 295 295 299 303 302 300 302 301 301 306 316 322 318 318 319
316 319 316 315 312 312 314 314 312 313 314 312 310 310 310 309 308 304 300 299 299 298 297 297 298 298 298 298 298 298 296 296 296 295 293 292 292 291 291 291 292 292 292 292 291 291 291 291 291 291 290 289 289 288 288 287 286 286 285 284 284 284 284 285 284 284 284 284 284 285 286 288 289 291 292 293 295 296 298 298 297 296 295 294 297 301 301 299 300 300 300 300 307 318 320 317 319
318 315 311 310 310 311 313 311 311 312 311 309 309 309 307 307 308 304 300 300 299 298 297 297 297 297 297 297 297 297 296 295 295 296 294 292 291 291 291 291 292 292 291 291 291 291 291 291 290 290 289 288 288 287 287 286 285 285 284 284 283 283 283 283 283 283 283 283 284 285 286 286 287 289 291 293 294 295 297 298 297 296 296 294 296 299 300 299 299 299 300 299 300 309 318 318 318
317 313 308 308 310 311 311 311 310 309 308 308 309 309 308 310 310 304 300 300 300 298 297 296 296 296 296 296 297 295 295 295 295 295 294 291 291 291 291 291 292 291 291 291 291 291 291 290 290 289 288 288 287 287 286 285 285 284 283 283 283 282 282 282 282 283 283 283 283 284 284 285 286 287 289 290 292 294 296 298 297 296 295 294 294 297 298 298 299 298 299 300 299 303 314 320 319
313 311 309 310 312 311 309 309 309 307 308 309 309 309 308 311 311 305 302 302 301 299 297 296 296 295 295 296 296 295 294 295 296 294 292 291 291 291 291 292 291 291 291 290 291 291 290 290 289 288 288 287 286 286 285 284 284 283 283 282 282 282 281 281 281 281 282 282 283 283 283 283 285 286 288 289 290 292 295 297 297 296 295 294 294 295 295 296 298 299 299 300 299 299 306 316 319
309 309 311 313 313 311 309 309 308 308 312 311 309 310 308 308 310 306 303 305 304 300 296 296 295 294 295 295 295 295 295 295 296 294 291 291 291 291 291 291 291 291 290 290 291 290 290 289 288 288 287 287 286 285 284 284 283 283 282 282 281 281 280 280 280 280 281 282 282 282 282 282 283 284 286 288 290 292 295 297 297 296 295 294 294 295 294 295 296 298 299 299 299 298 300 307 316
309 311 311 313 316 315 311 311 310 311 316 313 307 308 306 307 309 306 304 305 304 300 296 295 294 293 295 296 295 295 296 296 295 295 292 290 290 290 291 291 290 290 290 290 290 290 289 289 288 287 287 286 285 284 284 283 283 282 282 281 281 280 280 279 279 280 280 281 281 281 281 281 281 282 283 285 288 291 293 296 297 295 295 295 294 294 294 294 295 297 298 299 299 299 299 301 311
311 312 309 310 317 319 316 315 312 311 316 310 303 305 304 304 306 307 307 304 301 300 297 295 294 293 295 296 296 296 296 296 295 294 294 291 289 289 290 290 290 290 290 290 290 289 289 288 287 287 286 285 285 284 283 283 282 282 281 281 280 279 279 279 279 279 279 280 280 280 280 280 280 281 282 283 286 289 291 293 295 296 295 295 294 294 294 294 294 295 297 298 298 299 299 299 305
310 312 312 312 315 316 316 317 315 315 317 309 301 303 305 305 305 305 305 301 297 297 296 294 293 294 296 295 296 296 296 296 295 294 294 293 290 289 290 290 289 289 290 290 290 289 288 288 287 286 285 285 284 283 283 282 282 281 281 280 280 279 278 278 278 278 278 278 279 279 278 279 279 280 281 283 285 287 289 290 292 294 296 295 294 294 294 294 294 295 296 298 298 298 299 299 301
311 312 313 314 314 316 318 317 317 316 316 310 303 304 308 308 304 300 298 296 295 295 294 294 295 295 296 295 295 296 295 295 295 293 294 292 290 290 290 289 289 289 290 290 289 288 288 287 286 286 285 284 284 283 282 282 281 281 280 280 279 279 278 278 277 277 277 277 277 277 277 278 278 279 280 282 284 287 289 289 290 292 294 296 295 294 294 294 294 294 295 296 298 298 298 299 300
311 308 308 310 312 313 313 312 312 310 308 307 304 306 309 304 298 295 295 294 294 294 294 294 295 295 295 295 295 295 294 294 294 294 295 292 290 290 290 289 289 289 289 289 289 288 287 287 286 285 284 284 283 283 282 281 281 280 280 279 279 278 278 277 277 277 276 276 276 276 277 277 277 278 279 281 283 285 287 288 289 290 292 295 296 294 294 294 294 294 294 295 297 298 298 300 300
309 305 308 311 309 307 307 308 309 307 306 306 305 307 307 303 298 294 294 294 293 294 294 293 294 295 295 295 295 294 293 293 293 294 294 291 289 289 289 289 289 289 289 289 288 287 287 286 285 285 284 283 283 282 281 281 280 280 280 279 279 278 277 277 276 276 276 276 276 276 276 276 276 277 278 279 281 282 284 287 288 288 290 293 295 295 294 294 294 294 294 294 296 297 298 300 301
307 307 311 310 306 304 306 308 307 305 306 307 306 305 304 305 302 295 293 295 294 293 293 293 294 295 295 295 294 293 292 293 294 294 292 290 288 289 289 289 289 289 289 288 287 287 286 285 285 284 283 283 282 282 281 280 279 279 279 279 278 278 277 277 276 276 275 275 275 275 275 275 276 276 277 278 279 281 283 285 286 286 287 290 293 295 294 294 294 294 294 294 295 297 298 300 302
306 308 307 306 308 307 305 306 307 307 308 309 308 305 303 304 303 296 294 294 294 293 293 293 294 294 295 295 294 293 293 294 295 294 293 290 288 288 289 288 289 289 288 287 287 286 286 285 284 283 283 282 282 281 280 279 279 279 278 278 278 277 277 276 276 275 275 275 275 275 275 275 275 276 276 277 278 280 281 282 284 284 285 287 290 293 294 294 294 294 294 294 294 296 298 300 302
301 303 302 302 305 306 304 304 306 308 309 309 309 308 306 305 303 299 295 294 294 293 293 294 294 294 295 295 295 295 295 295 294 294 294 290 287 288 289 288 289 288 287 287 286 285 285 284 283 283 282 282 281 280 279 278 278 278 278 277 277 277 276 276 275 275 275 275 274 274 274 274 275 275 276 277 278 279 280 281 282 283 284 286 288 291 294 294 294 293 293 294 294 295 297 299 301
301 301 301 300 300 303 305 303 302 304 306 307 307 307 307 305 302 300 297 295 293 293 294 295 295 294 294 295 295 295 294 294 293 293 293 290 287 288 289 288 288 287 286 286 285 285 284 283 283 282 281 281 280 279 278 278 277 277 277 277 277 276 276 276 275 275 274 274 274 274 274 274 274 275 275 276 277 278 279 280 281 282 283 285 286 289 292 294 294 293 293 293 294 294 296 298 300
304 302 302 301 300 303 305 303 302 302 303 305 305 306 308 304 299 298 297 295 294 295 295 296 295 294 294 294 295 294 293 293 292 292 292 288 286 287 288 287 287 286 285 285 284 284 283 282 282 281 280 280 279 278 278 277 277 277 277 276 276 276 276 275 275 275 274 274 274 274 274 274 274 274 275 276 277 277 278 279 280 281 282 283 285 288 291 293 294 293 293 293 293 294 295 297 300
Wind_Speed
8 5 6 6 7 7 6 1 3 2 3 3 0 2 2 2 3 4 5 4 3 1 0 2 2 1 1 2 3 6 7 5 2 4 3 2 5 21 26 24 24 22 23 17 15 14 13 13 12 10 5 7 8 8 8 8 9 11 12 13 13 14 14 13 14 14 13 12 11 10 10 10 10 10 10 10 10 10 10 11 14 15 16 17 16 14 13 13 14 15 14 14 14 14 13 14 13
8 5 5 6 7 3 2 2 4 2 5 4 2 3 1 3 5 4 5 4 2 2 2 3 3 2 3 2 6 8 10 9 8 6 4 7 7 20 29 22 24 22 23 20 14 13 13 13 13 12 8 7 9 9 8 8 8 10 12 14 14 15 16 16 16 16 15 14 13 12 12 12 11 11 11 11 12 12 12 12 13 14 16 16 16 14 13 13 14 15 15 15 15 14 15 15 14
9 5 5 6 4 0 0 3 3 2 5 3 3 3 1 5 4 3 6 6 3 1 3 4 4 2 4 6 6 7 6 8 12 3 1 19 14 20 28 21 24 21 22 22 15 13 12 13 14 14 12 10 10 10 10 9 9 9 11 13 14 15 16 17 17 16 15 15 14 13 13 14 12 11 11 13 13 14 14 14 14 14 15 15 15 14 13 14 14 14 15 15 14 15 16 16 15
8 6 5 6 2 2 3 3 2 4 4 3 2 4 3 4 3 3 4 6 4 4 4 4 3 1 6 9 6 6 5 3 11 9 2 19 18 18 26 23 26 24 23 23 18 17 15 14 15 15 14 12 11 12 12 12 11 11 11 12 14 15 16 17 17 16 15 15 14 13 14 14 13 13 13 14 15 15 16 16 15 14 14 14 15 14 13 13 14 14 14 14 14 15 16 17 16
6 6 3 2 3 2 2 2 1 5 3 3 3 2 2 3 4 5 1 4 6 6 4 3 2 3 9 9 6 4 5 2 9 16 7 16 21 19 26 27 29 30 28 25 22 20 19 19 17 18 16 14 14 14 15 15 15 14 13 14 14 15 16 17 18 17 17 16 15 14 15 14 14 15 15 16 17 17 17 17 16 16 15 15 15 15 14 14 14 14 13 13 13 14 16 18 17
8 7 1 1 2 1 2 3 2 4 1 3 5 2 1 3 4 4 1 3 5 6 5 3 2 3 8 6 7 6 7 4 5 14 12 17 23 22 25 28 30 32 31 29 27 24 22 22 20 20 19 18 17 16 17 17 17 17 16 16 16 16 17 18 18 18 19 17 16 16 16 14 15 16 16 17 18 18 18 17 16 17 17 17 16 16 15 15 14 14 14 13 13 13 15 18 18
8 6 2 3 2 1 4 3 4 3 1 3 6 4 3 3 2 4 4 3 4 5 5 2 3 7 4 3 8 10 16 13 5 13 18 18 22 25 26 26 29 30 30 30 30 28 27 26 25 23 22 21 20 20 19 18 18 18 19 18 18 18 18 19 19 19 19 17 17 18 17 16 16 17 17 18 18 19 19 19 17 17 18 18 17 17 16 15 15 15 16 15 14 14 16 19 19
4 3 1 4 2 2 4 2 2 3 2 4 5 5 5 3 2 3 2 2 3 3 4 3 5 10 3 6 8 8 20 20 14 19 25 23 25 28 28 28 30 31 30 30 29 28 28 28 28 27 26 25 24 24 22 21 19 17 18 19 19 19 20 20 19 20 19 18 19 20 19 18 19 18 18 19 19 19 19 19 20 19 18 18 18 18 17 16 16 16 16 16 16 15 16 19 20
1 1 2 4 2 3 2 1 2 2 2 4 5 4 4 2 3 3 2 4 2 4 3 4 7 8 4 11 7 4 17 22 20 25 30 30 30 31 31 32 33 33 33 32 31 30 28 28 27 28 28 27 27 26 25 24 23 20 17 18 19 20 20 21 20 20 20 19 20 21 20 20 20 19 19 20 20 19 19 21 22 20 19 18 19 19 19 19 18 17 17 16 17 16 17 20 21
2 2 2 3 2 3 2 0 1 2 3 4 5 4 2 1 4 4 4 6 3 4 5 3 10 10 7 8 3 5 15 21 25 29 31 31 31 33 33 33 33 35 36 35 34 34 32 30 29 29 28 27 27 27 26 26 25 24 22 19 19 20 20 21 21 21 20 20 21 21 21 20 20 19 20 21 20 20 21 22 22 20 20 20 19 20 20 20 20 19 19 18 17 17 17 20 22
3 3 2 4 4 2 0 2 2 3 3 4 2 2 2 1 3 4 5 6 4 5 5 5 8 10 10 7 3 7 17 24 30 30 29 29 30 32 33 33 32 32 35 36 35 36 36 34 33 32 31 29 27 26 26 26 26 26 25 24 22 21 20 21 22 23 22 20 21 21 20 20 20 20 21 22 22 23 24 24 22 21 22 20 20 20 21 21 21 21 21 20 19 18 18 20 22
3 4 4 4 1 1 2 4 3 4 3 3 2 3 2 4 4 4 5 5 4 7 6 5 3 7 8 5 3 8 19 28 28 26 27 28 29 30 31 32 32 31 33 35 35 36 37 37 36 36 35 33 30 27 25 25 25 26 26 26 25 25 24 23 22 24 25 23 22 22 21 21 22 22 22 22 23 25 26 25 23 22 22 21 21 21 22 22 22 22 23 22 21 20 18 20 22
3 1 4 2 3 2 1 4 3 3 4 1 2 2 3 5 4 3 6 6 5 8 6 7 1 7 6 3 3 7 17 26 25 25 26 26 27 29 31 32 33 33 33 36 36 37 37 37 37 36 37 37 34 30 28 26 25 26 26 25 25 25 25 25 24 24 26 26 25 24 23 23 24 25 24 23 24 26 26 25 24 23 22 21 22 22 23 23 24 24 24 24 22 21 19 20 22
2 1 4 0 1 1 2 3 2 4 2 3 2 1 3 3 3 5 7 8 8 5 1 8 3 7 5 3 3 4 11 23 24 24 24 26 27 29 31 32 33 34 34 36 37 37 37 37 37 37 37 38 36 34 33 31 28 27 26 26 25 25 25 26 25 26 27 27 28 27 27 26 26 26 27 26 26 27 28 28 26 25 23 22 23 23 24 25 25 25 25 25 24 23 21 21 23
2 1 4 1 3 2 1 3 4 5 2 2 2 3 5 1 3 5 6 9 7 2 3 13 9 4 4 3 3 4 11 23 25 25 25 28 29 30 31 32 32 33 34 35 36 37 37 37 36 36 37 37 36 35 35 34 32 30 28 27 27 26 25 26 26 26 26 27 28 29 30 30 29 29 28 28 29 29 29 29 27 26 26 24 24 25 25 26 26 26 26 26 26 26 24 23 24
3 3 5 2 2 1 0 2 3 5 2 1 3 4 6 3 2 5 4 10 5 6 8 11 9 7 6 6 5 8 17 24 25 27 28 29 30 30 31 32 32 32 33 34 36 36 36 36 36 36 35 36 35 34 34 35 34 32 31 30 29 28 27 27 28 27 27 27 27 29 30 31 32 33 32 31 31 32 30 28 27 28 28 27 26 26 27 27 27 27 26 26 27 27 26 25 25
3 4 4 2 1 1 1 1 3 4 2 0 3 4 6 2 3 5 8 15 11 10 13 8 9 10 8 8 11 15 20 24 26 28 29 29 27 28 30 31 32 32 33 33 34 35 35 36 36 36 35 35 35 34 34 34 33 33 33 32 30 29 29 29 29 28 28 28 28 29 30 32 33 34 35 35 34 33 32 31 31 31 30 29 29 29 29 29 29 28 28 27 27 28 27 26 26
4 3 3 1 1 1 2 2 2 4 3 1 1 3 7 2 2 3 9 15 12 12 12 10 11 11 12 14 17 19 20 23 26 26 25 24 23 23 24 26 28 29 30 30 32 33 34 35 35 35 35 35 36 36 36 34 34 33 33 33 32 32 30 30 30 30 30 30 30 30 31 32 33 34 34 35 36 36 35 34 34 34 33 32 31 31 31 30 30 29 29 28 28 29 28 26 26
3 2 2 2 4 2 1 4 3 4 5 1 1 3 6 3 2 2 6 9 10 12 9 8 11 9 12 15 17 19 19 22 23 23 21 20 19 18 19 22 23 25 26 27 29 31 33 33 33 34 34 35 36 38 37 36 35 34 34 33 33 33 32 32 31 31 31 31 31 32 32 32 33 34 34 34 35 36 36 35 35 36 36 34 33 33 33 32 31 31 30 30 29 29 28 25 26
2 3 2 5 4 1 2 6 4 4 6 3 3 3 4 1 1 3 7 8 7 9 6 6 9 7 7 9 14 17 18 20 20 21 20 19 18 17 18 20 21 24 25 25 27 29 30 31 30 30 31 32 34 36 37 37 35 35 35 35 35 34 34 34 34 33 33 32 32 32 32 33 33 33 34 34 34 35 36 36 36 36 37 36 35 34 34 33 32 31 31 31 30 30 29 26 28
1 3 2 7 1 2 3 5 6 4 6 4 2 4 4 2 3 4 8 8 5 4 5 8 10 9 8 6 10 14 16 16 17 18 18 17 17 16 18 20 20 23 24 24 27 26 26 29 27 27 29 29 30 33 34 35 34 35 37 36 36 36 35 36 35 35 35 34 34 34 33 32 33 33 33 33 33 35 36 37 36 36 37 35 35 35 35 35 34 33 33 32 32 32 32 29 30
1 1 4 4 2 1 2 4 5 4 6 5 4 3 2 1 5 4 7 7 3 4 6 10 11 10 9 8 9 11 12 12 13 15 15 16 17 16 18 20 20 22 23 22 24 25 24 27 26 26 29 27 28 30 30 32 32 32 35 35 36 36 37 38 37 37 36 36 36 36 35 34 33 32 32 33 33 33 35 38 38 37 37 36 35 36 36 35 34 34 34 34 33 34 34 33 32
1 4 2 2 2 0 2 3 3 5 7 4 2 0 1 6 6 4 8 7 6 7 9 11 11 12 13 11 10 9 8 9 11 13 15 16 17 17 17 20 19 19 22 21 22 25 24 28 28 26 29 28 29 30 29 31 30 29 31 32 33 34 35 36 38 39 38 37 37 36 36 36 35 33 33 33 34 33 34 37 39 39 38 38 37 37 37 36 36 35 36 35 34 35 35 34 34
2 3 3 3 3 3 2 3 3 6 6 1 0 1 3 9 6 4 8 8 8 9 10 13 14 15 15 12 9 8 8 10 12 14 16 17 18 17 15 19 20 17 22 23 22 25 26 28 29 28 29 30 31 31 31 32 30 29 30 31 32 32 32 32 35 38 39 37 36 37 36 35 35 35 35 34 35 35 34 35 37 40 40 40 39 39 39 38 37 36 36 36 35 35 35 34 34
2 3 3 2 4 4 2 5 4 4 2 2 4 2 3 8 8 6 7 8 8 10 11 12 13 12 12 9 7 7 8 11 14 13 14 16 17 17 14 17 21 19 22 24 23 25 25 29 30 29 30 31 33 33 34 34 32 30 31 32 32 33 32 32 35 36 36 37 36 36 37 36 35 35 36 36 36 36 35 34 34 37 40 40 40 40 40 39 39 38 38 37 37 35 34 34 34
2 1 2 3 4 5 1 3 2 1 1 4 6 5 3 10 9 4 5 9 9 10 10 9 10 9 8 7 6 7 7 10 13 11 10 13 16 18 16 16 22 20 21 24 24 25 26 30 32 30 31 33 35 36 37 37 34 34 34 34 34 33 33 34 37 35 33 36 37 38 38 36 35 35 35 35 36 36 36 35 34 35 37 38 39 40 41 40 40 39 39 38 37 35 35 35 35
1 2 3 4 5 5 1 2 1 2 1 4 4 2 4 8 6 3 6 8 9 10 9 8 9 8 7 6 6 7 7 10 13 12 10 12 15 20 18 16 20 20 21 24 24 24 26 31 33 32 32 34 37 38 39 39 38 38 39 38 37 36 36 36 37 35 33 34 37 39 39 36 35 34 35 36 36 37 36 36 35 35 36 37 38 40 40 41 42 41 40 40 39 37 36 36 36
1 4 5 7 6 6 3 3 2 2 1 3 6 1 4 6 1 7 10 8 10 11 10 8 9 7 7 6 5 5 6 11 15 14 12 12 13 17 18 15 18 20 20 24 25 25 29 32 34 32 33 35 37 38 38 38 39 40 42 42 40 39 39 38 37 36 34 35 37 38 38 37 37 37 37 37 37 37 37 36 36 35 36 36 37 40 40 41 42 41 40 40 39 37 36 36 36
1 3 3 7 5 4 5 4 2 3 2 2 5 2 3 7 4 10 12 10 9 10 10 8 8 7 6 6 4 4 6 12 14 13 10 9 10 13 17 15 17 19 22 26 26 28 32 34 34 33 34 36 37 37 37 36 37 38 40 41 41 41 40 39 38 37 36 37 37 36 37 40 40 39 36 35 36 37 37 36 36 35 36 37 37 38 40 41 40 39 38 38 38 36 36 36 35
0 2 2 2 6 4 6 4 2 4 2 1 4 2 5 5 7 12 11 11 11 10 9 7 7 6 5 5 5 4 6 10 10 9 8 8 9 14 17 17 18 21 24 27 27 30 33 33 33 34 35 37 37 36 36 36 37 37 38 38 40 41 41 40 39 38 37 38 38 37 37 40 42 39 35 35 36 37 37 36 36 36 36 38 38 37 38 41 39 38 38 37 38 37 36 36 36
1 0 1 2 2 4 7 4 4 4 3 3 6 4 6 4 10 13 11 11 13 10 8 7 6 5 5 5 5 4 5 8 7 6 8 9 11 16 19 20 21 22 25 26 27 30 32 31 32 33 34 36 36 36 37 38 38 37 37 38 39 40 41 41 40 38 38 39 38 38 38 39 40 39 36 36 35 36 37 36 36 37 37 38 39 39 39 39 38 39 40 39 38 38 38 37 37
1 0 3 2 3 4 7 3 6 6 3 4 5 4 5 4 10 11 9 10 11 10 8 7 7 6 5 5 5 4 4 6 4 5 9 11 14 19 20 22 23 23 24 24 26 29 30 30 31 33 34 35 37 38 39 39 38 37 38 39 40 41 41 41 40 39 40 40 39 38 40 40 39 38 38 37 36 37 37 36 36 37 36 36 37 39 40 36 36 41 42 42 40 38 38 37 36
3 1 3 3 1 3 3 4 4 6 2 2 4 4 3 3 8 7 7 9 10 10 8 8 7 6 6 4 4 4 3 3 2 3 9 13 17 21 22 23 24 23 23 22 25 28 28 29 31 33 34 35 37 38 39 38 37 38 40 41 41 40 40 40 40 40 40 40 39 39 41 41 39 38 38 37 36 37 37 36 37 37 36 34 34 37 40 37 36 38 39 44 44 40 39 38 36
4 2 2 4 3 3 2 4 4 3 3 4 5 5 5 3 9 9 7 9 10 10 9 8 7 6 5 4 4 4 4 1 2 1 10 17 19 21 22 23 23 22 21 21 24 26 27 30 31 33 33 34 36 36 36 35 37 40 42 42 41 40 39 39 40 41 42 42 41 42 42 42 40 38 38 38 37 36 37 37 37 37 36 35 34 36 40 41 39 40 40 42 44 43 40 39 38
3 2 2 4 4 4 4 3 3 4 5 6 5 6 7 4 8 8 7 9 9 9 8 7 7 6 5 5 5 4 4 3 3 2 12 18 18 19 20 22 23 23 22 21 24 26 28 31 31 32 32 34 35 34 33 34 38 41 42 42 42 40 39 39 40 42 43 44 44 43 42 42 41 39 39 39 37 36 37 38 38 37 36 36 36 37 39 40 42 44 46 46 44 44 44 43 41
5 5 4 4 5 6 6 5 5 5 5 6 7 7 6 5 9 8 7 8 8 8 7 6 6 6 5 5 5 5 4 3 2 4 12 16 15 16 18 21 24 24 23 23 26 28 30 32 31 31 31 34 35 33 34 35 38 41 43 43 42 41 39 39 41 41 43 44 44 45 44 42 41 40 40 39 37 35 36 37 37 37 36 35 36 36 38 38 42 44 43 46 44 39 41 43 43
3 3 3 5 6 6 7 6 5 3 3 6 7 7 7 6 10 10 8 7 8 9 8 8 7 6 6 6 5 5 5 4 2 5 9 14 12 14 17 20 23 24 24 26 27 29 31 30 28 28 31 33 34 34 35 36 37 39 42 43 43 43 40 40 42 43 42 45 47 47 45 42 41 40 40 40 37 36 36 36 36 37 36 34 35 37 37 38 37 43 42 42 46 40 34 36 40
2 3 4 5 5 7 8 6 4 2 1 6 5 6 8 6 9 9 8 9 11 11 11 9 8 7 6 6 6 5 4 1 2 2 5 11 12 14 16 19 20 21 24 27 28 30 30 26 25 28 32 34 35 35 35 36 36 38 41 43 44 43 41 40 44 46 47 50 49 46 44 42 41 41 40 39 38 37 35 35 34 35 36 35 36 38 36 39 40 38 43 40 43 44 38 37 42
3 3 2 4 4 5 8 5 2 2 1 5 5 7 8 7 9 9 12 12 10 10 11 10 9 8 6 6 6 5 3 1 4 2 2 8 11 13 14 17 19 20 23 25 28 30 27 23 26 31 33 35 36 35 36 36 39 40 40 40 39 40 44 46 49 52 51 50 48 44 43 42 42 42 40 38 38 38 35 34 34 33 35 35 34 36 33 36 43 39 37 40 38 38 36 38 45
4 4 2 5 4 2 5 4 2 3 2 4 6 9 8 7 7 7 10 9 6 6 8 8 8 8 8 7 6 5 6 2 3 4 3 6 11 12 13 17 18 19 22 25 29 29 24 25 30 33 34 35 35 37 38 39 41 41 38 38 40 43 48 51 51 50 45 42 42 42 42 42 42 41 40 39 40 39 36 34 34 32 33 34 32 31 29 31 39 42 39 37 38 31 26 32 44
5 6 5 6 4 4 6 3 5 5 4 4 6 9 7 7 8 6 5 4 6 7 8 7 7 7 7 6 6 6 6 4 2 4 4 5 9 10 12 15 16 18 21 25 28 26 24 28 33 33 34 34 36 38 39 39 40 40 40 42 45 45 46 46 41 40 41 42 42 43 43 42 42 43 42 40 39 39 38 35 33 32 32 32 31 29 27 28 32 38 44 37 36 37 26 28 40
5 5 7 6 4 4 5 4 6 5 5 5 1 5 7 4 8 8 4 5 7 6 8 9 7 7 7 6 6 6 5 4 3 3 2 4 7 8 10 13 15 17 21 25 24 23 25 31 32 32 32 33 37 38 37 37 39 39 39 39 40 38 38 39 37 38 44 47 46 46 46 45 44 43 44 42 40 40 40 37 33 31 31 31 30 28 27 26 29 34 40 43 37 46 39 28 33
4 5 4 4 3 2 5 3 3 2 4 3 3 1 7 2 5 9 7 9 10 7 8 9 8 7 7 6 6 6 5 3 1 1 2 4 6 7 9 12 14 18 22 23 22 24 28 31 29 29 32 35 36 36 35 37 38 38 37 37 37 35 33 38 43 44 44 46 47 45 44 44 44 43 44 43 41 40 40 38 34 31 30 30 28 27 26 26 28 32 35 43 40 33 40 29 29
4 4 4 3 0 4 5 3 3 4 2 4 2 3 7 7 5 10 11 11 10 9 9 9 8 8 7 7 6 6 6 5 3 1 3 4 6 8 10 12 14 19 22 22 23 27 28 28 27 29 34 36 35 34 36 37 36 36 38 38 38 37 35 40 47 47 44 44 45 42 40 42 43 43 43 42 41 41 41 40 35 30 29 26 25 24 24 25 26 30 33 38 45 33 34 37 33
6 5 3 2 4 6 5 4 6 3 3 6 7 5 5 9 4 6 10 10 11 12 13 11 10 9 8 7 6 6 5 4 4 2 3 5 7 9 10 11 15 19 21 22 25 27 27 26 28 32 35 35 34 34 36 37 36 35 35 36 36 38 39 40 44 45 43 41 41 40 40 41 41 41 41 41 41 41 41 41 35 30 28 23 21 22 22 24 25 28 32 34 41 42 34 43 41
5 3 2 3 4 6 4 4 5 2 1 9 7 7 5 7 2 5 6 8 12 13 11 11 10 9 8 7 6 6 5 3 2 2 4 6 8 10 11 12 16 19 22 24 26 26 25 27 31 34 35 34 33 34 37 38 37 35 34 35 35 37 39 40 41 43 41 39 38 38 39 40 39 38 39 40 42 41 41 41 35 29 27 22 19 19 19 22 25 26 28 30 35 43 38 33 44
1 2 3 4 4 3 1 2 0 3 4 9 7 10 8 6 2 7 7 7 11 11 9 10 10 9 8 7 6 6 5 4 2 2 4 8 11 10 10 14 17 21 24 25 26 25 25 28 32 35 35 34 34 36 38 38 37 34 33 34 35 36 37 38 38 40 39 37 35 35 36 37 37 38 39 39 38 39 39 40 37 29 27 23 18 18 18 19 23 26 26 27 30 36 42 34 33
3 3 3 4 5 2 4 3 3 1 6 6 5 8 8 7 5 6 7 6 7 12 13 14 13 10 8 6 6 6 5 4 3 2 5 10 12 9 13 15 17 21 23 25 24 24 26 30 33 35 36 35 35 37 37 38 37 35 34 33 34 34 34 35 36 38 38 36 35 34 34 36 37 38 39 39 37 37 39 38 36 30 27 25 20 18 18 18 21 24 26 26 28 31 37 42 33
4 4 4 3 5 4 3 2 1 3 7 4 1 2 5 10 7 6 10 8 7 12 14 15 14 10 8 7 6 5 5 4 3 3 6 8 6 9 13 14 16 19 22 24 24 24 27 31 33 34 36 36 37 38 38 38 38 35 34 33 34 34 34 34 34 35 36 36 35 34 34 35 37 37 37 38 38 37 38 36 35 34 31 27 23 19 17 18 19 22 25 26 27 30 32 39 40
4 3 3 2 1 4 5 4 3 5 6 3 1 2 3 7 5 5 10 7 6 9 10 12 12 10 8 7 6 5 5 4 4 6 6 4 6 10 11 13 16 18 22 23 23 25 28 32 34 34 36 37 37 38 38 38 38 37 34 34 34 35 35 33 33 34 36 36 35 35 36 36 36 36 37 38 38 38 38 36 37 37 36 31 24 19 17 17 19 19 23 26 27 30 31 36 44
4 4 5 4 3 2 5 4 4 7 6 4 2 1 4 3 4 5 4 5 5 7 9 9 9 8 7 6 6 5 5 5 6 5 3 5 8 10 11 14 17 19 23 23 22 25 29 32 34 34 36 38 38 38 38 39 40 39 36 35 36 35 34 34 33 33 35 36 37 38 37 37 36 37 38 40 38 36 37 37 36 37 38 36 27 20 17 16 19 19 20 25 27 29 31 34 43
3 2 4 2 4 4 4 2 3 3 6 5 3 3 5 3 2 4 4 6 7 8 8 9 8 7 7 6 6 6 5 5 3 2 5 6 8 10 11 14 17 20 22 21 22 26 30 33 34 34 36 38 38 37 36 38 40 40 38 37 37 36 35 35 34 35 36 37 38 38 38 38 39 39 38 39 39 38 37 36 35 36 38 38 31 23 19 16 18 20 19 23 26 27 30 33 38
1 2 2 5 4 4 2 3 0 2 5 6 3 4 5 1 1 1 4 6 7 7 7 8 8 7 7 6 5 6 5 2 3 4 4 5 8 10 12 14 17 21 21 20 23 28 31 32 33 34 37 39 38 36 37 39 39 39 39 38 37 37 36 36 36 37 38 38 37 37 39 39 39 40 39 40 43 43 39 35 34 35 37 36 34 28 22 18 18 19 19 21 25 27 29 33 34
4 3 4 3 1 2 2 1 2 2 4 6 2 6 8 1 2 3 4 6 7 8 7 8 7 7 7 6 6 5 3 2 4 3 4 6 8 10 13 15 18 20 20 21 26 30 31 31 31 32 36 37 37 38 40 41 40 38 38 38 39 39 38 37 38 39 39 38 37 37 39 40 40 40 40 41 42 41 39 37 34 35 36 35 34 32 26 21 19 20 20 21 24 26 29 33 32
4 3 2 1 0 2 2 2 2 2 6 7 3 6 8 5 5 5 8 11 11 9 7 8 8 7 7 6 6 4 1 1 2 4 5 5 8 12 14 17 19 18 18 23 28 30 31 31 32 32 34 36 36 38 40 41 40 38 38 39 40 40 40 40 39 39 39 38 39 39 39 40 40 40 40 40 41 40 38 38 35 34 36 34 34 34 31 26 22 21 22 21 23 25 28 31 31
3 1 2 1 2 3 2 2 2 2 6 8 5 6 4 5 7 11 14 14 13 11 9 8 8 7 7 6 5 4 3 4 4 4 4 5 9 13 15 17 17 16 19 25 28 29 30 31 33 33 34 37 38 39 38 38 38 39 39 39 40 41 42 41 40 39 39 39 40 40 39 39 39 40 40 39 39 39 38 38 35 33 34 33 33 33 33 30 25 22 22 21 22 24 27 30 29
3 2 2 2 2 1 1 2 3 3 6 6 6 10 5 3 4 10 14 13 13 12 9 8 7 7 7 6 6 5 5 5 4 4 5 6 9 13 16 15 15 16 22 26 26 27 29 30 32 33 34 36 38 39 38 38 39 39 39 39 41 43 43 42 40 38 39 40 39 39 38 39 39 39 39 38 38 39 38 37 35 33 33 33 33 33 33 32 28 24 23 22 21 23 26 29 28
6 6 6 6 5 2 3 5 2 3 6 4 5 13 9 2 3 6 9 10 11 11 9 8 8 9 8 7 7 6 5 4 4 5 5 6 9 13 14 13 14 18 23 25 25 26 28 29 32 33 33 34 36 38 39 39 39 39 39 40 41 43 43 43 41 38 37 37 37 38 38 38 39 39 38 38 37 39 38 37 35 34 34 34 33 32 32 31 29 25 23 21 20 21 24 27 26
Wind_Direction
1 20 32 358 330 331 317 150 75 355 75 78 95 86 352 7 83 58 36 23 50 4 347 60 43 59 54 132 148 89 55 17 4 99 82 274 323 5 14 17 18 16 12 0 346 357 348 341 352 351 303 254 247 257 263 257 248 247 249 246 247 248 251 251 249 246 243 242 243 245 247 248 246 246 246 250 256 262 269 272 275 277 281 286 289 288 284 281 279 275 270 268 266 264 259 258 257
14 19 41 351 312 325 288 117 84 10 59 48 358 81 334 6 48 71 77 73 112 257 318 33 64 39 10 111 112 79 39 15 30 113 121 357 332 7 18 18 15 12 12 9 351 6 6 350 351 352 339 298 273 268 267 261 252 247 251 252 252 251 252 252 251 247 244 244 240 240 247 248 246 248 252 257 259 260 263 268 270 271 273 278 283 283 280 280 280 277 273 267 265 262 260 259 258
28 28 40 5 310 186 11 40 85 73 73 86 9 340 6 47 41 91 114 111 142 310 21 31 73 30 18 42 65 98 47 26 29 69 112 17 10 6 15 19 17 17 19 23 17 18 16 1 354 351 347 330 307 290 279 271 264 255 254 254 255 256 257 257 259 257 254 252 245 241 248 252 250 250 257 262 265 263 265 269 270 268 268 270 274 274 274 278 277 275 274 268 264 261 259 259 258
33 28 15 16 17 32 48 52 118 112 97 131 57 328 26 77 23 48 130 124 107 61 46 32 56 331 57 37 21 87 42 40 30 20 22 15 14 10 22 29 25 29 28 28 25 18 16 10 359 353 348 337 324 308 295 284 276 269 263 259 258 260 263 265 265 262 259 255 250 246 251 258 258 258 260 263 264 263 264 267 270 267 265 264 265 268 268 272 272 270 270 268 264 259 260 259 257
20 14 346 33 79 21 78 60 41 95 103 159 115 316 25 81 18 19 171 119 94 78 73 55 34 337 55 40 16 63 329 266 25 22 29 14 20 25 31 35 32 32 29 27 22 14 9 4 356 353 349 339 328 315 305 294 286 279 273 269 267 265 266 268 266 262 259 255 251 250 251 254 256 260 263 263 263 261 263 265 268 267 264 261 259 262 262 264 265 263 260 262 263 259 260 260 258
3 13 27 84 108 154 86 56 58 90 148 149 119 215 71 60 19 28 25 65 73 71 79 86 96 57 75 74 67 68 354 354 355 10 15 11 22 28 30 32 32 29 27 27 23 19 13 6 1 358 355 350 340 328 315 302 292 285 281 277 275 274 272 271 269 264 261 257 256 257 254 253 253 258 261 261 262 262 263 263 265 265 263 260 257 260 261 262 262 262 260 256 258 258 258 259 258
356 5 58 51 15 79 81 106 142 115 23 112 128 166 103 41 1 44 32 67 60 35 55 75 104 90 85 116 83 51 27 29 5 10 15 15 21 28 29 29 31 28 25 25 24 23 20 15 12 9 6 2 357 349 339 324 307 291 285 283 281 279 277 276 273 270 267 262 263 263 262 262 259 259 259 259 261 261 263 264 263 262 262 262 261 261 261 263 263 266 268 262 256 253 253 257 255
351 1 72 77 24 21 75 97 151 150 73 108 133 132 107 60 39 51 19 102 110 55 38 339 77 92 57 65 83 32 27 28 23 26 30 37 36 36 37 36 38 35 31 31 29 27 24 20 15 12 9 6 3 360 355 350 337 314 294 286 285 282 279 279 277 276 273 267 267 269 269 268 264 266 266 263 261 260 264 267 265 263 262 264 264 262 261 262 264 266 270 269 262 251 247 254 254
353 47 37 73 49 9 40 35 38 122 94 99 102 90 113 96 69 62 19 36 92 97 22 316 72 96 92 70 88 34 22 18 28 38 42 46 44 44 44 44 43 40 38 36 33 30 29 25 21 17 11 7 3 0 358 357 354 344 322 299 290 285 281 280 280 279 273 268 269 271 271 268 267 270 268 265 265 263 265 266 266 266 264 264 264 263 261 260 263 265 266 266 265 258 247 248 251
40 52 73 71 48 11 7 114 53 102 113 111 101 91 108 81 77 64 61 52 70 89 360 349 78 89 95 70 73 33 10 12 32 40 43 45 44 45 45 46 43 41 38 36 35 33 32 29 27 23 16 11 6 2 359 356 355 353 347 331 311 297 286 281 283 282 277 272 272 272 271 271 270 269 265 264 268 267 263 263 264 267 267 265 264 263 262 261 263 264 264 261 260 261 253 249 250
36 352 88 73 42 20 30 158 140 128 126 105 70 34 65 85 95 51 69 80 65 74 14 21 88 103 92 76 83 30 12 23 33 36 43 45 44 45 44 45 42 41 36 33 34 32 32 30 28 25 21 18 11 6 2 359 356 352 349 346 337 324 309 293 287 285 284 280 278 275 271 271 271 270 267 264 265 265 263 262 263 264 266 266 265 263 263 262 263 262 262 260 257 258 257 254 250
46 337 59 75 104 225 199 146 145 122 57 51 9 313 75 76 81 46 69 94 71 65 28 4 101 116 92 84 81 20 21 30 33 40 47 46 45 45 44 43 40 39 35 31 32 30 29 27 26 24 21 19 17 13 7 4 0 355 349 345 341 337 330 317 303 293 289 285 281 278 275 275 274 274 273 266 262 263 264 264 262 259 261 265 267 265 263 261 261 260 259 259 258 259 259 256 251
66 21 73 89 197 199 140 121 146 101 27 345 209 252 97 69 72 97 97 101 75 68 9 322 92 96 87 106 54 12 24 28 35 48 50 48 47 44 42 40 38 37 35 30 30 29 27 26 25 22 18 16 18 18 15 10 5 0 353 346 341 336 333 328 319 310 302 296 289 283 280 279 277 278 278 273 266 264 263 264 265 262 260 262 265 265 263 259 257 258 259 258 258 259 260 257 253
104 121 102 169 281 111 132 99 108 92 50 259 250 350 91 88 114 113 106 77 46 87 20 350 53 99 79 101 42 5 25 30 40 50 50 49 45 42 38 36 35 35 34 30 28 28 27 25 24 23 19 15 17 20 19 15 10 5 358 351 345 339 335 330 325 319 312 305 299 292 286 280 278 278 278 277 274 271 266 265 266 264 262 260 263 264 261 257 255 256 258 258 258 259 260 258 253
134 126 99 111 335 10 129 97 117 104 129 255 10 81 86 76 126 89 93 89 30 318 85 22 29 99 61 77 55 14 36 37 44 49 50 47 41 40 35 32 32 31 31 27 26 26 26 25 22 22 19 15 18 20 17 14 12 8 4 358 352 345 339 335 331 325 319 311 304 299 293 287 282 278 276 276 276 276 272 267 261 259 262 261 261 261 259 257 254 254 255 257 259 260 260 258 251
123 108 75 72 329 355 129 98 109 93 140 208 37 91 86 355 66 72 65 105 70 16 63 33 31 82 77 86 83 51 48 45 47 49 48 44 39 37 33 30 28 27 28 25 23 22 23 23 21 20 18 15 16 18 14 11 10 8 6 3 359 353 346 340 335 331 326 319 310 305 299 293 287 282 278 275 275 276 274 268 259 256 259 261 261 260 258 256 254 254 255 257 260 260 260 257 252
62 78 63 22 292 148 208 110 128 121 144 44 25 67 105 325 354 81 72 86 91 62 69 60 58 79 85 87 76 62 56 50 48 48 45 41 36 34 30 28 26 24 24 23 21 19 20 21 18 17 16 12 10 13 12 9 7 5 3 2 1 357 352 346 340 335 329 325 319 313 307 299 292 286 281 277 275 273 271 267 261 258 257 258 260 259 257 255 255 256 257 257 258 259 258 257 253
50 73 75 322 212 162 215 135 134 125 116 98 41 91 117 146 344 100 85 82 93 84 77 77 73 71 77 78 71 63 60 54 49 48 45 40 37 34 28 25 24 22 21 21 19 18 18 18 15 13 12 7 4 6 8 6 4 3 360 358 358 355 352 349 344 339 334 329 324 320 315 309 300 291 285 281 276 273 271 268 263 260 258 256 257 257 257 255 254 255 257 256 255 256 256 254 248
69 92 70 249 210 201 181 104 73 101 132 144 39 106 113 155 177 98 93 103 104 95 87 85 81 69 68 69 67 63 59 57 51 50 47 41 39 37 29 24 23 19 17 18 16 15 16 16 14 10 9 5 360 1 2 2 1 359 356 356 354 351 349 348 345 342 338 332 327 323 319 316 308 297 288 284 280 277 273 270 265 261 259 256 255 255 256 256 254 254 254 254 253 254 254 249 240
84 91 38 253 226 285 27 90 108 130 133 105 358 83 96 293 158 97 106 103 88 102 121 107 98 93 80 65 65 63 58 57 53 50 46 40 39 39 35 26 22 17 15 17 14 12 13 13 12 8 5 3 358 357 357 357 358 354 352 353 351 348 347 344 342 340 338 336 331 326 320 317 314 306 294 286 281 278 274 270 266 262 259 256 254 254 253 254 253 252 252 252 252 252 252 245 236
52 109 188 245 283 2 357 90 120 112 101 91 355 64 74 346 30 106 124 93 60 99 134 131 126 120 106 85 70 67 62 59 55 52 46 39 35 37 37 27 24 20 17 19 15 10 10 9 9 4 2 4 358 355 355 353 354 350 348 350 347 346 345 343 341 338 336 334 331 328 324 319 315 312 305 295 285 278 272 269 266 261 257 253 251 251 250 250 249 249 250 250 249 250 249 243 234
27 250 209 240 42 29 298 88 95 76 66 56 54 70 97 18 33 73 114 107 137 133 122 125 124 124 118 109 90 75 68 63 58 55 48 39 32 32 34 25 21 19 17 17 13 11 9 7 6 2 1 3 358 355 354 351 352 348 347 348 345 344 343 340 340 338 334 330 328 327 326 323 317 313 310 307 300 289 276 268 264 261 257 252 249 248 248 247 246 247 249 249 247 248 248 244 236
2 287 265 295 29 332 312 67 65 74 71 43 70 128 107 93 56 44 86 106 137 130 125 119 114 118 113 104 93 76 66 63 57 55 48 39 29 27 30 22 15 13 12 11 10 10 9 8 5 0 1 1 358 356 352 350 349 346 345 346 345 344 340 338 338 336 333 330 327 325 323 323 320 316 312 309 307 301 289 275 265 260 256 251 248 247 246 245 244 245 247 247 246 247 247 243 237
130 276 291 313 343 331 353 64 58 85 90 317 65 96 126 116 104 71 89 112 124 121 119 114 113 111 103 95 90 84 73 62 55 54 50 40 27 22 25 19 11 7 8 7 6 7 8 7 3 359 360 358 356 354 351 348 346 344 344 345 344 342 339 337 337 335 333 331 329 327 324 322 320 318 315 312 309 304 298 289 273 261 256 252 249 246 244 242 243 243 243 244 244 244 243 239 234
151 243 279 313 321 304 5 69 62 82 85 346 50 62 175 135 116 103 120 133 127 120 113 110 111 102 98 98 97 92 77 66 57 53 51 42 27 19 20 14 9 7 7 6 3 4 6 4 1 359 357 356 354 352 350 348 345 343 343 343 342 341 339 338 336 334 333 332 331 330 327 324 322 318 315 314 311 306 301 296 283 268 258 251 246 243 241 240 240 239 239 240 240 240 237 234 231
209 240 302 336 305 295 356 92 105 135 62 34 47 30 123 129 105 94 152 148 134 122 113 109 107 101 104 105 105 103 90 79 62 51 51 42 27 17 14 10 8 7 5 4 3 3 4 2 0 357 355 354 352 350 349 347 345 343 341 340 339 339 338 336 335 334 331 331 329 329 328 327 324 322 319 316 314 310 304 298 290 278 263 252 244 240 239 239 237 235 235 235 235 233 230 229 227
236 359 325 319 288 293 328 173 216 172 119 67 90 38 154 153 108 121 192 162 140 123 117 114 107 109 113 108 111 113 109 91 66 52 46 33 23 14 8 5 5 4 3 3 3 3 3 0 359 357 355 353 350 349 347 345 344 341 340 338 337 337 335 333 334 332 329 328 327 326 326 326 325 324 322 320 318 314 310 303 296 287 273 258 246 242 239 238 237 234 233 233 232 227 223 224 222
2 16 339 310 287 292 283 205 252 200 182 104 131 138 189 199 144 159 176 164 145 129 125 123 116 121 121 119 122 119 112 87 63 49 41 25 17 9 2 0 0 2 4 3 1 2 1 359 358 357 354 351 349 347 345 344 342 339 337 335 333 332 331 329 329 328 325 324 325 324 323 322 322 322 321 320 320 317 313 309 303 294 283 269 252 244 240 237 235 233 231 229 228 222 218 218 215
40 49 350 311 334 316 269 228 220 177 223 120 118 21 211 212 209 159 159 154 144 129 129 131 129 136 131 129 124 103 92 82 64 50 44 27 17 5 360 359 359 2 3 2 2 3 1 358 357 356 353 350 347 345 343 342 340 337 335 333 330 328 327 325 323 322 321 320 321 321 320 318 318 321 322 320 320 319 316 312 308 300 291 281 265 251 242 236 230 228 225 222 221 216 212 210 206
39 72 137 328 14 321 259 220 170 166 229 49 96 322 264 215 166 152 155 150 139 130 136 138 136 142 140 136 123 101 84 85 76 59 46 31 23 10 5 4 3 3 2 3 4 4 1 358 357 356 353 349 347 344 343 340 337 334 332 330 328 326 324 321 319 318 316 317 317 316 316 316 315 318 320 321 321 320 319 314 311 305 298 290 275 259 247 238 227 220 217 213 211 209 206 203 199
92 83 107 78 89 284 272 210 156 173 244 82 102 261 266 199 158 160 162 152 142 140 144 142 142 143 143 141 132 129 95 87 88 68 46 37 28 14 10 7 5 4 2 3 5 3 360 358 357 355 352 350 348 345 341 337 334 332 331 329 327 324 321 318 316 314 313 313 312 312 313 313 313 312 314 318 320 320 320 316 312 309 306 298 282 263 251 243 227 214 211 206 203 202 200 198 195
50 135 317 343 162 265 295 243 172 184 249 105 122 261 268 183 171 168 161 151 142 141 151 150 150 148 145 146 137 133 100 79 78 69 44 35 27 15 11 7 4 1 0 3 3 1 360 359 356 351 349 347 345 342 338 335 333 332 331 328 325 323 320 317 314 312 310 308 307 308 309 309 309 308 309 314 315 318 320 316 313 311 310 305 290 269 253 243 226 212 206 202 198 195 195 193 193
351 108 265 290 244 272 297 286 219 183 201 146 175 235 266 189 179 177 162 152 143 144 156 155 154 153 144 141 130 120 111 66 7 56 42 33 26 16 13 8 3 359 358 2 1 360 359 356 352 347 344 342 340 338 336 335 333 332 328 325 323 321 319 317 315 312 309 306 304 304 305 305 304 303 305 308 309 314 318 317 314 312 311 308 299 281 258 241 226 214 204 201 199 193 191 191 190
330 14 284 272 280 278 260 299 286 182 182 230 217 230 260 210 172 181 172 155 149 151 159 156 153 150 141 138 134 137 156 185 288 27 41 36 28 18 14 9 4 0 358 359 359 359 357 353 348 345 342 339 337 335 335 335 333 330 326 324 321 318 317 315 315 313 310 306 302 300 301 301 300 298 300 302 304 307 313 316 315 312 310 306 305 296 270 244 229 221 209 201 200 194 189 188 187
247 268 284 286 289 282 262 273 261 192 201 234 233 245 263 210 171 182 179 162 156 157 158 155 151 147 146 147 153 166 177 202 244 73 47 39 29 18 15 11 7 3 358 355 356 356 355 352 347 343 341 339 337 335 335 334 332 330 326 323 320 316 315 314 314 313 310 307 302 298 296 296 296 294 295 298 298 302 308 313 315 313 309 305 303 304 287 255 230 222 213 202 199 196 191 188 185
213 226 214 245 273 278 262 258 239 186 189 240 234 241 253 195 184 194 183 164 155 156 153 153 154 154 152 155 172 179 184 216 216 92 49 37 27 18 16 15 11 5 359 353 352 353 351 347 343 342 343 342 338 335 334 332 331 330 327 324 319 316 314 314 314 313 311 308 304 299 294 292 292 291 292 293 293 297 303 308 313 313 309 305 300 301 298 271 238 224 216 200 194 196 193 188 183
227 246 245 246 256 273 270 270 260 165 163 249 232 233 250 209 195 201 183 159 159 162 161 165 163 158 160 163 180 186 192 220 162 103 47 30 23 17 17 16 10 4 360 354 351 349 345 342 342 343 343 341 337 333 331 330 331 329 327 323 318 314 313 314 313 313 312 310 307 301 294 290 290 290 289 289 289 293 298 302 308 312 308 304 300 296 297 290 260 230 217 201 192 191 192 190 182
258 249 268 274 256 259 270 265 240 143 173 264 252 246 255 234 212 201 173 167 179 176 169 172 165 161 168 166 183 199 196 265 26 91 34 23 16 13 15 12 5 0 358 355 351 345 340 340 344 342 340 339 336 331 328 327 328 327 324 319 315 313 313 315 314 312 311 308 305 301 296 292 291 291 288 285 286 289 294 298 302 308 307 302 300 297 294 296 287 248 219 204 194 190 188 188 182
252 259 281 281 263 264 286 283 185 109 295 270 279 270 256 246 236 204 182 184 188 183 172 168 162 159 171 172 186 198 169 18 348 302 344 15 8 7 8 3 359 355 353 352 349 344 340 342 344 341 340 338 335 331 329 327 326 326 324 319 317 317 316 315 312 309 308 305 302 299 297 295 293 290 286 284 286 286 288 293 299 304 305 301 297 300 297 289 293 281 238 209 192 189 189 186 182
243 247 253 265 270 267 284 304 332 314 265 246 272 277 256 239 243 207 192 186 163 170 167 160 162 161 174 182 178 169 160 172 308 280 290 3 1 360 1 355 351 349 347 349 347 343 342 344 344 342 339 337 334 332 330 328 327 327 326 322 321 318 314 313 311 310 310 309 306 302 299 297 294 290 287 285 284 282 283 287 294 300 302 303 295 295 299 287 286 294 276 230 193 182 187 185 185
258 225 217 244 253 231 239 281 331 321 303 280 284 291 269 215 211 200 185 159 145 161 156 156 174 172 173 173 166 166 165 172 234 262 287 349 353 350 353 347 343 343 344 348 347 344 346 346 343 339 337 335 333 331 330 329 329 328 327 324 322 320 316 315 314 314 316 315 311 307 303 301 297 292 289 287 282 279 281 282 288 296 300 303 297 289 293 293 285 289 290 265 212 186 182 183 186
286 241 217 218 204 235 268 332 359 340 309 297 308 299 284 211 188 191 165 156 170 172 164 166 178 182 174 162 170 179 170 177 205 224 273 332 339 341 343 339 338 342 346 350 348 347 346 343 338 335 333 331 330 330 330 331 329 327 327 325 323 321 317 315 314 314 314 313 310 306 304 303 301 295 289 286 283 279 278 278 282 289 297 302 300 292 288 294 292 286 290 285 244 197 183 181 183
286 252 187 161 141 273 289 330 3 283 264 281 100 228 277 273 174 187 176 177 187 185 179 181 183 187 181 172 177 173 168 183 211 234 281 319 328 327 324 330 339 346 350 351 348 345 342 338 335 333 329 329 329 329 330 331 329 327 325 323 320 316 312 310 310 309 309 309 309 306 303 301 301 299 292 286 282 279 276 275 278 281 291 300 300 294 290 291 294 291 288 292 280 220 185 181 183
252 239 134 117 135 274 268 246 240 241 277 294 243 204 267 279 228 188 174 180 198 197 193 193 192 192 182 177 174 160 171 180 169 247 301 309 310 306 307 324 345 353 352 348 343 340 337 336 333 331 328 327 328 329 330 331 329 326 324 322 318 315 312 309 308 308 306 307 308 308 307 304 302 301 298 293 285 279 274 272 274 277 284 296 299 294 293 292 291 294 291 290 293 269 206 187 186
248 213 162 204 229 242 246 234 249 271 13 285 239 173 245 272 245 167 166 185 209 207 200 195 190 190 177 172 172 161 168 177 168 202 279 289 296 296 302 328 352 357 351 343 339 336 334 333 331 329 328 327 327 328 329 329 327 324 321 319 316 314 313 311 309 307 305 306 307 308 309 307 305 303 300 300 295 286 276 269 268 274 280 289 299 295 295 295 288 290 292 287 291 285 238 196 188
243 197 225 273 250 244 230 226 259 16 2 261 232 165 217 266 214 142 165 206 220 210 197 191 190 185 173 167 168 162 163 184 201 226 253 282 292 291 307 345 359 355 347 340 336 333 331 331 330 328 327 326 326 327 328 328 325 322 319 317 315 314 314 313 311 309 306 306 306 307 309 307 305 304 302 301 300 295 284 269 264 270 278 285 293 295 295 297 290 284 287 286 286 291 276 222 192
217 51 344 326 291 268 142 200 44 55 263 258 221 182 202 270 237 161 180 217 212 194 177 184 190 177 170 167 160 160 167 188 230 256 261 276 277 289 332 2 1 349 343 338 333 330 329 330 329 327 325 325 325 326 326 325 323 321 318 317 316 314 315 315 313 310 308 307 307 308 309 308 305 304 304 303 302 304 295 275 263 266 276 281 285 291 295 298 294 286 285 287 283 286 291 276 217
70 64 28 344 311 353 39 7 55 105 256 262 228 198 198 240 244 187 213 238 189 176 175 180 183 170 165 165 160 166 171 182 212 241 257 261 266 311 1 5 355 345 339 335 330 328 329 329 328 326 323 324 324 325 324 323 321 320 318 317 316 315 315 315 313 310 309 309 309 309 308 308 307 304 303 302 301 307 306 288 270 267 272 277 279 284 295 300 297 290 285 286 287 282 285 289 260
80 81 63 4 320 349 355 314 149 217 249 249 181 166 213 241 249 207 223 238 191 177 176 173 168 160 164 167 164 168 165 173 195 224 247 252 278 349 5 356 346 340 334 330 326 326 328 327 327 324 321 322 324 324 323 322 321 320 319 318 316 316 315 314 312 309 308 308 307 309 309 307 305 304 301 299 298 302 307 302 289 278 272 273 275 278 289 299 297 293 289 283 285 284 279 284 276
138 134 124 156 303 327 299 276 268 273 270 249 133 47 275 263 278 231 213 212 180 161 154 155 152 152 163 166 160 164 168 182 203 225 248 282 346 356 352 343 338 333 329 326 323 325 326 325 325 323 320 321 323 322 322 322 321 320 318 317 316 316 315 313 312 309 307 306 305 305 307 304 301 301 300 296 296 298 301 305 303 293 279 271 270 273 280 295 298 292 290 285 281 284 280 280 282
188 166 139 163 170 235 272 269 270 288 290 257 233 300 241 224 299 282 193 136 116 122 128 133 141 151 156 153 153 165 181 201 220 239 291 348 350 341 336 333 332 329 327 323 322 325 325 323 323 321 319 320 321 321 322 322 321 319 317 317 317 316 314 312 309 308 306 304 304 303 302 302 298 297 298 295 294 297 299 302 305 302 290 276 267 270 273 286 299 294 288 288 281 283 283 276 282
238 134 111 191 186 193 252 232 201 291 309 273 216 226 227 193 334 348 96 113 110 119 130 133 147 156 146 150 163 175 194 212 239 326 2 350 329 322 323 326 328 328 324 320 321 325 323 321 320 319 318 319 319 319 321 322 321 318 317 317 317 316 313 311 308 306 305 303 302 301 299 299 298 296 296 297 298 299 300 301 302 305 300 284 268 268 273 275 292 295 288 289 284 281 283 275 278
202 133 178 227 186 152 242 275 129 56 302 273 215 246 271 351 331 335 114 126 132 143 149 146 160 160 147 162 178 183 195 222 357 9 352 309 299 305 314 324 328 326 321 319 321 322 320 318 318 317 317 318 318 318 320 322 320 317 316 317 317 316 314 311 309 305 305 304 300 299 299 298 296 295 295 297 300 299 298 300 301 305 307 295 275 268 272 275 283 291 287 286 285 281 281 275 273
146 189 225 224 122 106 130 274 330 58 264 265 200 243 260 204 216 230 158 163 174 181 172 159 167 162 159 178 182 181 178 31 1 336 283 269 283 304 317 325 326 323 320 319 320 320 318 316 316 317 317 317 317 318 320 321 320 317 316 317 317 316 314 311 309 306 304 303 300 299 299 298 296 296 295 296 299 299 298 300 301 303 307 303 289 275 272 275 277 286 287 282 284 281 278 277 272
139 207 243 106 172 253 148 156 255 233 264 270 230 247 249 203 194 199 190 195 193 189 181 173 178 172 170 181 180 181 164 14 283 268 261 269 294 310 319 322 322 323 320 319 319 319 317 316 317 317 316 316 315 317 319 319 319 317 315 315 315 314 314 311 308 306 304 301 300 300 299 298 297 296 296 295 296 298 299 300 301 303 303 304 299 286 275 275 275 280 285 283 287 283 277 279 277
79 32 327 33 198 221 181 163 186 205 264 275 287 293 263 199 188 183 193 200 188 183 186 183 185 180 175 177 178 185 195 213 238 257 266 281 294 306 318 321 320 321 321 321 320 318 317 317 318 318 317 317 316 317 318 317 317 316 313 313 314 313 313 311 308 306 303 300 300 300 298 298 298 297 297 295 295 296 298 300 301 302 301 300 302 294 280 275 273 275 281 283 289 288 282 283 282
141 160 232 229 205 215 263 231 153 192 251 265 287 285 258 188 184 179 187 196 183 177 181 183 185 180 176 176 176 183 193 208 240 260 263 277 289 307 321 321 317 321 322 321 319 317 318 318 318 318 317 317 317 317 318 317 317 316 314 312 313 314 313 311 308 304 302 300 299 298 297 298 298 297 297 296 295 296 297 299 299 300 301 299 299 297 286 276 272 273 279 282 289 290 286 287 286
176 187 195 200 202 185 265 261 187 194 240 219 248 270 263 194 174 174 173 179 175 173 175 179 181 175 176 181 174 175 185 199 236 254 263 281 293 309 319 317 318 323 322 321 320 319 319 319 319 318 317 316 317 317 317 318 318 316 313 313 312 313 313 311 308 305 302 301 300 299 298 299 298 297 297 296 295 296 296 297 298 298 300 299 297 296 290 279 273 274 279 283 290 291 289 291 289